Flag for Cameroon Weather past 2 weeks in Bamenda, Cameroon

Now
79 °F

Passing clouds.


Feels Like: 83 °F
Forecast: 53 / 86 °F
Wind: No wind

Location: Douala Obs.

Current Time: Mar 2, 2015 at 2:51:35 AM

Latest Report: Mar 2, 2015 at 2:00 AM


Visibility: N/A

Pressure: 29.80 "Hg

Humidity: 94%

Dew point: 77 °F

Location of BamendaLocation

Historic Weather in Bamenda — Graph

°F

Bamenda temperature yesterday

Maximum temperature yesterday: 91 °F (at 2:00 PM)
Minimum temperature yesterday: 79 °F (at 1:00 AM)
Average temperature yesterday: 83 °F

Past Weeks' High & Low Weather Summary

 TemperatureHumidityPressure
High93 °F (Feb 16, 2:00 PM)100% (Feb 15, 7:00 AM)29.92 "Hg (Feb 15, 7:00 AM)
Low72 °F (Feb 19, 2:00 AM)59% (Feb 15, 2:00 PM)29.71 "Hg (Feb 17, 6:00 PM)
Average82 °F83%29.82 "Hg
* Reported Feb 15 1:00 AM — Mar 2 1:00 AM, Bamenda, Weather by CustomWeather, © 2015

Note: Actual official high and low records may vary slightly from our data, if they occured in-between our weather recording intervals... More about our weather records

Advertising

Bamenda weather history for previous 24 hours

 ConditionsComfort  
Time TempWeatherWind HumidityBarometerVisibility
1:00 AM
Mon, Mar 2
79 °FPassing clouds.No wind94%29.83 "HgN/A
12:00 AM81 °FPassing clouds.No wind89%29.83 "HgN/A
11:00 PM
Sun, Mar 1
81 °FPassing clouds.No wind94%29.83 "HgN/A
10:00 PM81 °FPartly cloudy.No wind94%29.83 "HgN/A
9:00 PM82 °FPassing clouds.No wind89%29.83 "HgN/A
8:00 PM82 °FPassing clouds.5 mph84%29.80 "HgN/A
7:00 PM84 °FPassing clouds.12 mph79%29.77 "HgN/A
6:00 PM84 °FScattered clouds.9 mph79%29.74 "HgN/A
5:00 PM86 °FPassing clouds.9 mph75%29.74 "HgN/A
4:00 PM88 °FPassing clouds.9 mph70%29.74 "HgN/A
3:00 PM88 °FScattered clouds.12 mph70%29.74 "HgN/A
2:00 PM91 °FBroken clouds.7 mph63%29.77 "Hg5 mi
1:00 PM90 °FPartly sunny.7 mph67%29.83 "Hg4 mi
12:00 PM88 °FPartly sunny.3 mph75%29.86 "Hg4 mi
11:00 AM88 °FPartly sunny.No wind75%29.86 "Hg4 mi
10:00 AM86 °FPartly sunny.3 mph79%29.89 "Hg4 mi
9:00 AM82 °FPartly sunny.3 mph89%29.86 "Hg4 mi
8:00 AM81 °FFog.No wind89%29.86 "Hg2 mi
7:00 AM79 °FFog.No wind94%29.83 "Hg2 mi
6:00 AM79 °FPassing clouds.No wind94%29.80 "Hg4 mi
5:00 AM79 °FPassing clouds.No wind94%29.80 "Hg4 mi
4:00 AM79 °FPassing clouds.No wind100%29.80 "Hg4 mi
3:00 AM79 °FPassing clouds.No wind100%29.80 "Hg4 mi
2:00 AM81 °FPassing clouds.No wind94%29.83 "HgN/A
Weather by CustomWeather, © 2015

See weather overviewHow to use our weather pages